FENGYUN 1A

Satellite information

Favourite Embed

Satellite Type and Status

PAYLOADIN ORBIT

Key statistics

Satellite FENGYUN 1A at a glance.

Uptime

13393

Days in orbit

Revolutions

≈ 14.0

Per day

Orbit

SSO

Sun Synchronous Orbit

Inclination

99.1

Latest

Satellite identification and parameters

Extended collection of information and parameters for FENGYUN 1A.

Object identification

Identified? True

Debris? False

Object name: FENGYUN 1A

International designator: 1988-080A

Object number (NORAD): 19467

Object ID (CCSDS): 19467

Country: PEOPLES REPUBLIC OF CHINA (PRC)

Current information (Y/N): Y

RCS size: LARGE

Orbital parameters

Period: 102.604 minutes

Inclination: 99.0808 deg

SMA: 7260.003 km

Apoapsis: 892.393 km

Periapsis: 871.342 km

RAAN: 177.8193 deg

Eccentricy: 0.0014498

Argument of periapsis: 32.7169 deg

Mean anomaly: 327.4892 deg

Mean motion: 14.03452053 rev/day

Mean motion (dot): 0.00000141 rev/day2

B* drag term: 0.00011866 1/REarth

Two-line elements (TLE)

Creation date: May 8, 2025, 3:01 a.m.

Reference frame: TEME

Reference center: EARTH

Epoch: May 7, 2025, 5:18 p.m. UTC

TLE line 0: 0 FENGYUN 1A

TLE line 1: 1 19467U 88080A 25127.72129412 .00000141 00000-0 11866-3 0 9997

TLE line 2: 2 19467 99.0808 177.8193 0014498 32.7169 327.4892 14.03452053877029

Live tracking on map

Real-time ground track for satellite FENGYUN 1A.

In-orbit conjunctions

There are no conjunctions computed for FENGYUN 1A, at the moment. Check back to stay up to date, as we update our databases every day.

Go to all conjunctions

Associated space launch

Chinese polar orbiting meteorological satellite

FENGYUN 1A was lifted into orbit during the mission ‘Long March 4A | Feng Yun 1A’, on board a Long March 4A space rocket.

The launch took place on Sept. 6, 1988, 8:30 p.m. from Launch Complex 7.

For more information about the launch, click the button.

Launch to space Long March 4A | Feng Yun 1A
Long March 4A | Feng Yun 1A

Agency: N/A

Status: Launch Successful

Launch date: Sept. 6, 1988, 8:30 p.m. UTC

Rocket: Long March 4A

Launch pad: Launch Complex 7

Location: Taiyuan Satellite Launch Center, People's Republic of China

...

Latest news about this satellite

There are no fresh news available about this satellite. Check back as we update our databases every day.


Newsletter sign-up

Weekly statistics, charts and insights to help you stay on top of the space industry.